Year,Month,Day,Hour,Minute,Value (Times are PST for temperature in C)
2019,04,04,00,00,9.00
2019,04,04,00,01,9.00
2019,04,04,00,02,9.00
2019,04,04,00,03,9.00
2019,04,04,00,04,8.90
2019,04,04,00,05,8.90
2019,04,04,00,06,8.90
2019,04,04,00,07,8.90
2019,04,04,00,08,8.90
2019,04,04,00,09,8.90
2019,04,04,00,10,8.90
2019,04,04,00,11,8.90
2019,04,04,00,12,8.80
2019,04,04,00,13,8.80
2019,04,04,00,14,8.80
2019,04,04,00,15,8.80
2019,04,04,00,16,8.80
2019,04,04,00,17,8.80
2019,04,04,00,18,8.80
2019,04,04,00,19,8.80
2019,04,04,00,20,8.80
2019,04,04,00,21,8.70
2019,04,04,00,22,8.70
2019,04,04,00,23,8.70
2019,04,04,00,24,8.70
2019,04,04,00,25,8.70
2019,04,04,00,26,8.70
2019,04,04,00,27,8.70
2019,04,04,00,28,8.70
2019,04,04,00,29,8.70
2019,04,04,00,30,8.70
2019,04,04,00,31,8.70
2019,04,04,00,32,8.70
2019,04,04,00,33,8.70
2019,04,04,00,34,8.60
2019,04,04,00,35,8.70
2019,04,04,00,36,8.60
2019,04,04,00,37,8.60
2019,04,04,00,38,8.60
2019,04,04,00,39,8.60
2019,04,04,00,40,8.60
2019,04,04,00,41,8.60
2019,04,04,00,42,8.60
2019,04,04,00,43,8.60
2019,04,04,00,44,8.60
2019,04,04,00,45,8.60
2019,04,04,00,46,8.60
2019,04,04,00,47,8.60
2019,04,04,00,48,8.60
2019,04,04,00,49,8.60
2019,04,04,00,50,8.60
2019,04,04,00,51,8.60
2019,04,04,00,52,8.60
2019,04,04,00,53,8.60
2019,04,04,00,54,8.60
2019,04,04,00,55,8.60
2019,04,04,00,56,8.50
2019,04,04,00,57,8.60
2019,04,04,00,58,8.50
2019,04,04,00,59,8.50
2019,04,04,01,00,8.50
2019,04,04,01,01,8.60
2019,04,04,01,02,8.50
2019,04,04,01,03,8.50
2019,04,04,01,04,8.50
2019,04,04,01,05,8.50
2019,04,04,01,06,8.50
2019,04,04,01,07,8.60
2019,04,04,01,08,8.60
2019,04,04,01,09,8.50
2019,04,04,01,10,8.50
2019,04,04,01,11,8.50
2019,04,04,01,12,8.50
2019,04,04,01,13,8.50
2019,04,04,01,14,8.50
2019,04,04,01,15,8.40
2019,04,04,01,16,8.50
2019,04,04,01,17,8.50
2019,04,04,01,18,8.50
2019,04,04,01,19,8.40
2019,04,04,01,20,8.50
2019,04,04,01,21,8.40
2019,04,04,01,22,8.40
2019,04,04,01,23,8.40
2019,04,04,01,24,8.40
2019,04,04,01,25,8.40
2019,04,04,01,26,8.40
2019,04,04,01,27,8.40
2019,04,04,01,28,8.30
2019,04,04,01,29,8.30
2019,04,04,01,30,8.30
2019,04,04,01,31,8.30
2019,04,04,01,32,8.30
2019,04,04,01,33,8.30
2019,04,04,01,34,8.30
2019,04,04,01,35,8.20
2019,04,04,01,36,8.20
2019,04,04,01,37,8.20
2019,04,04,01,38,8.10
2019,04,04,01,39,8.10
2019,04,04,01,40,8.10
2019,04,04,01,41,8.10
2019,04,04,01,42,8.10
2019,04,04,01,43,8.10
2019,04,04,01,44,8.10
2019,04,04,01,45,8.10
2019,04,04,01,46,8.10
2019,04,04,01,47,8.20
2019,04,04,01,48,8.10
2019,04,04,01,49,8.10
2019,04,04,01,50,8.10
2019,04,04,01,51,8.10
2019,04,04,01,52,8.10
2019,04,04,01,53,8.10
2019,04,04,01,54,8.10
2019,04,04,01,55,8.00
2019,04,04,01,56,8.00
2019,04,04,01,57,7.90
2019,04,04,01,58,8.00
2019,04,04,01,59,7.90
2019,04,04,02,00,7.90
2019,04,04,02,01,7.90
2019,04,04,02,02,7.90
2019,04,04,02,03,7.90
2019,04,04,02,04,7.90
2019,04,04,02,05,7.80
2019,04,04,02,06,7.90
2019,04,04,02,07,7.90
2019,04,04,02,08,7.90
2019,04,04,02,09,7.90
2019,04,04,02,10,7.90
2019,04,04,02,11,7.90
2019,04,04,02,12,7.90
2019,04,04,02,13,7.90
2019,04,04,02,14,7.90
2019,04,04,02,15,7.90
2019,04,04,02,16,7.90
2019,04,04,02,17,7.90
2019,04,04,02,18,7.90
2019,04,04,02,19,7.90
2019,04,04,02,20,7.90
2019,04,04,02,21,7.90
2019,04,04,02,22,7.90
2019,04,04,02,23,7.90
2019,04,04,02,24,7.90
2019,04,04,02,25,7.90
2019,04,04,02,26,7.90
2019,04,04,02,27,7.90
2019,04,04,02,28,7.90
2019,04,04,02,29,7.80
2019,04,04,02,30,7.80
2019,04,04,02,31,7.80
2019,04,04,02,32,7.80
2019,04,04,02,33,7.80
2019,04,04,02,34,7.80
2019,04,04,02,35,7.80
2019,04,04,02,36,7.80
2019,04,04,02,37,7.80
2019,04,04,02,38,7.80
2019,04,04,02,39,7.80
2019,04,04,02,40,7.80
2019,04,04,02,41,7.80
2019,04,04,02,42,7.80
2019,04,04,02,43,7.80
2019,04,04,02,44,7.80
2019,04,04,02,45,7.80
2019,04,04,02,46,7.80
2019,04,04,02,47,7.80
2019,04,04,02,48,7.80
2019,04,04,02,49,7.80
2019,04,04,02,50,7.80
2019,04,04,02,51,7.80
2019,04,04,02,52,7.80
2019,04,04,02,53,7.80
2019,04,04,02,54,7.80
2019,04,04,02,55,7.70
2019,04,04,02,56,7.70
2019,04,04,02,57,7.70
2019,04,04,02,58,7.70
2019,04,04,02,59,7.70
2019,04,04,03,00,7.70
2019,04,04,03,01,7.70
2019,04,04,03,02,7.70
2019,04,04,03,03,7.70
2019,04,04,03,04,7.70
2019,04,04,03,05,7.70
2019,04,04,03,06,7.70
2019,04,04,03,07,7.70
2019,04,04,03,08,7.70
2019,04,04,03,09,7.60
2019,04,04,03,10,7.60
2019,04,04,03,11,7.60
2019,04,04,03,12,7.60
2019,04,04,03,13,7.60
2019,04,04,03,14,7.60
2019,04,04,03,15,7.60
2019,04,04,03,16,7.60
2019,04,04,03,17,7.60
2019,04,04,03,18,7.60
2019,04,04,03,19,7.60
2019,04,04,03,20,7.60
2019,04,04,03,21,7.60
2019,04,04,03,22,7.60
2019,04,04,03,23,7.60
2019,04,04,03,24,7.60
2019,04,04,03,25,7.60
2019,04,04,03,26,7.60
2019,04,04,03,27,7.60
2019,04,04,03,28,7.60
2019,04,04,03,29,7.60
2019,04,04,03,30,7.60
2019,04,04,03,31,7.60
2019,04,04,03,32,7.50
2019,04,04,03,33,7.60
2019,04,04,03,34,7.50
2019,04,04,03,35,7.50
2019,04,04,03,36,7.50
2019,04,04,03,37,7.50
2019,04,04,03,38,7.50
2019,04,04,03,39,7.40
2019,04,04,03,40,7.40
2019,04,04,03,41,7.40
2019,04,04,03,42,7.40
2019,04,04,03,43,7.40
2019,04,04,03,44,7.40
2019,04,04,03,45,7.40
2019,04,04,03,46,7.40
2019,04,04,03,47,7.40
2019,04,04,03,48,7.40
2019,04,04,03,49,7.40
2019,04,04,03,50,7.40
2019,04,04,03,51,7.30
2019,04,04,03,52,7.30
2019,04,04,03,53,7.30
2019,04,04,03,54,7.30
2019,04,04,03,55,7.30
2019,04,04,03,56,7.30
2019,04,04,03,57,7.30
2019,04,04,03,58,7.30
2019,04,04,03,59,7.30
2019,04,04,04,00,7.30
2019,04,04,04,01,7.30
2019,04,04,04,02,7.30
2019,04,04,04,03,7.30
2019,04,04,04,04,7.30
2019,04,04,04,05,7.20
2019,04,04,04,06,7.20
2019,04,04,04,07,7.20
2019,04,04,04,08,7.20
2019,04,04,04,09,7.20
2019,04,04,04,10,7.20
2019,04,04,04,11,7.20
2019,04,04,04,12,7.10
2019,04,04,04,13,7.10
2019,04,04,04,14,7.10
2019,04,04,04,15,7.10
2019,04,04,04,16,7.10
2019,04,04,04,17,7.10
2019,04,04,04,18,7.10
2019,04,04,04,19,7.10
2019,04,04,04,20,7.00
2019,04,04,04,21,7.00
2019,04,04,04,22,7.00
2019,04,04,04,23,7.00
2019,04,04,04,24,7.00
2019,04,04,04,25,7.00
2019,04,04,04,26,7.00
2019,04,04,04,27,7.00
2019,04,04,04,28,7.00
2019,04,04,04,29,7.00
2019,04,04,04,30,7.00
2019,04,04,04,31,7.00
2019,04,04,04,32,7.00
2019,04,04,04,33,7.00
2019,04,04,04,34,7.00
2019,04,04,04,35,7.00
2019,04,04,04,36,7.00
2019,04,04,04,37,7.00
2019,04,04,04,38,7.00
2019,04,04,04,39,7.00
2019,04,04,04,40,7.00
2019,04,04,04,41,7.00
2019,04,04,04,42,7.00
2019,04,04,04,43,7.00
2019,04,04,04,44,7.00
2019,04,04,04,45,7.00
2019,04,04,04,46,7.00
2019,04,04,04,47,7.00
2019,04,04,04,48,7.00
2019,04,04,04,49,7.00
2019,04,04,04,50,7.00
2019,04,04,04,51,7.00
2019,04,04,04,52,7.00
2019,04,04,04,53,7.00
2019,04,04,04,54,7.10
2019,04,04,04,55,7.10
2019,04,04,04,56,7.10
2019,04,04,04,57,7.10
2019,04,04,04,58,7.10
2019,04,04,04,59,7.10
2019,04,04,05,00,7.10
2019,04,04,05,01,7.10
2019,04,04,05,02,7.10
2019,04,04,05,03,7.10
2019,04,04,05,04,7.10
2019,04,04,05,05,7.10
2019,04,04,05,06,7.20
2019,04,04,05,07,7.20
2019,04,04,05,08,7.20
2019,04,04,05,09,7.10
2019,04,04,05,10,7.20
2019,04,04,05,11,7.10
2019,04,04,05,12,7.20
2019,04,04,05,13,7.20
2019,04,04,05,14,7.20
2019,04,04,05,15,7.20
2019,04,04,05,16,7.20
2019,04,04,05,17,7.20
2019,04,04,05,18,7.20
2019,04,04,05,19,7.20
2019,04,04,05,20,7.20
2019,04,04,05,21,7.20
2019,04,04,05,22,7.20
2019,04,04,05,23,7.20
2019,04,04,05,24,7.30
2019,04,04,05,25,7.30
2019,04,04,05,26,7.30
2019,04,04,05,27,7.30
2019,04,04,05,28,7.30
2019,04,04,05,29,7.30
2019,04,04,05,30,7.30
2019,04,04,05,31,7.30
2019,04,04,05,32,7.30
2019,04,04,05,33,7.30
2019,04,04,05,34,7.30
2019,04,04,05,35,7.30
2019,04,04,05,36,7.30
2019,04,04,05,37,7.30
2019,04,04,05,38,7.30
2019,04,04,05,39,7.30
2019,04,04,05,40,7.30
2019,04,04,05,41,7.30
2019,04,04,05,42,7.30
2019,04,04,05,43,7.40
2019,04,04,05,44,7.40
2019,04,04,05,45,7.40
2019,04,04,05,46,7.40
2019,04,04,05,47,7.40
2019,04,04,05,48,7.40
2019,04,04,05,49,7.40
2019,04,04,05,50,7.40
2019,04,04,05,51,7.40
2019,04,04,05,52,7.40
2019,04,04,05,53,7.40
2019,04,04,05,54,7.40
2019,04,04,05,55,7.40
2019,04,04,05,56,7.40
2019,04,04,05,57,7.40
2019,04,04,05,58,7.40
2019,04,04,05,59,7.40
2019,04,04,06,00,7.40
2019,04,04,06,01,7.40
2019,04,04,06,02,7.40
2019,04,04,06,03,7.40
2019,04,04,06,04,7.40
2019,04,04,06,05,7.40
2019,04,04,06,06,7.40
2019,04,04,06,07,7.40
2019,04,04,06,08,7.50
2019,04,04,06,09,7.50
2019,04,04,06,10,7.50
2019,04,04,06,11,7.50
2019,04,04,06,12,7.50
2019,04,04,06,13,7.50
2019,04,04,06,14,7.50
2019,04,04,06,15,7.50
2019,04,04,06,16,7.50
2019,04,04,06,17,7.50
2019,04,04,06,18,7.50
2019,04,04,06,19,7.50
2019,04,04,06,20,7.50
2019,04,04,06,21,7.50
2019,04,04,06,22,7.50
2019,04,04,06,23,7.60
2019,04,04,06,24,7.50
2019,04,04,06,25,7.60
2019,04,04,06,26,7.60
2019,04,04,06,27,7.60
2019,04,04,06,28,7.50
2019,04,04,06,29,7.60
2019,04,04,06,30,7.50
2019,04,04,06,31,7.60
2019,04,04,06,32,7.60
2019,04,04,06,33,7.60
2019,04,04,06,34,7.60
2019,04,04,06,35,7.60
2019,04,04,06,36,7.60
2019,04,04,06,37,7.60
2019,04,04,06,38,7.60
2019,04,04,06,39,7.60
2019,04,04,06,40,7.60
2019,04,04,06,41,7.60
2019,04,04,06,42,7.60
2019,04,04,06,43,7.60
2019,04,04,06,44,7.60
2019,04,04,06,45,7.60
2019,04,04,06,46,7.60
2019,04,04,06,47,7.60
2019,04,04,06,48,7.60
2019,04,04,06,49,7.60
2019,04,04,06,50,7.60
2019,04,04,06,51,7.60
2019,04,04,06,52,7.60
2019,04,04,06,53,7.60
2019,04,04,06,54,7.60
2019,04,04,06,55,7.60
2019,04,04,06,56,7.60
2019,04,04,06,57,7.60
2019,04,04,06,58,7.60
2019,04,04,06,59,7.60
2019,04,04,07,00,7.60
2019,04,04,07,01,7.60
2019,04,04,07,02,7.60
2019,04,04,07,03,7.60
2019,04,04,07,04,7.60
2019,04,04,07,05,7.60
2019,04,04,07,06,7.60
2019,04,04,07,07,7.60
2019,04,04,07,08,7.60
2019,04,04,07,09,7.60
2019,04,04,07,10,7.60
2019,04,04,07,11,7.60
2019,04,04,07,12,7.60
2019,04,04,07,13,7.60
2019,04,04,07,14,7.60
2019,04,04,07,15,7.60
2019,04,04,07,16,7.60
2019,04,04,07,17,7.60
2019,04,04,07,18,7.60
2019,04,04,07,19,7.60
2019,04,04,07,20,7.70
2019,04,04,07,21,7.60
2019,04,04,07,22,7.70
2019,04,04,07,23,7.70
2019,04,04,07,24,7.70
2019,04,04,07,25,7.70
2019,04,04,07,26,7.70
2019,04,04,07,27,7.70
2019,04,04,07,28,7.70
2019,04,04,07,29,7.70
2019,04,04,07,30,7.80
2019,04,04,07,31,7.80
2019,04,04,07,32,7.80
2019,04,04,07,33,7.80
2019,04,04,07,34,7.80
2019,04,04,07,35,7.80
2019,04,04,07,36,7.80
2019,04,04,07,37,7.80
2019,04,04,07,38,7.80
2019,04,04,07,39,7.80
2019,04,04,07,40,7.80
2019,04,04,07,41,7.80
2019,04,04,07,42,7.80
2019,04,04,07,43,7.80
2019,04,04,07,44,7.80
2019,04,04,07,45,7.80
2019,04,04,07,46,7.80
2019,04,04,07,47,7.80
2019,04,04,07,48,7.80
2019,04,04,07,49,7.80
2019,04,04,07,50,7.80
2019,04,04,07,51,7.80
2019,04,04,07,52,7.90
2019,04,04,07,53,7.90
2019,04,04,07,54,7.90
2019,04,04,07,55,7.90
2019,04,04,07,56,7.90
2019,04,04,07,57,7.90
2019,04,04,07,58,7.90
2019,04,04,07,59,7.90
2019,04,04,08,00,7.90
2019,04,04,08,01,8.00
2019,04,04,08,02,8.00
2019,04,04,08,03,8.00
2019,04,04,08,04,8.00
2019,04,04,08,05,8.10
2019,04,04,08,06,8.10
2019,04,04,08,07,8.10
2019,04,04,08,08,8.10
2019,04,04,08,09,8.10
2019,04,04,08,10,8.10
2019,04,04,08,11,8.20
2019,04,04,08,12,8.20
2019,04,04,08,13,8.20
2019,04,04,08,14,8.20
2019,04,04,08,15,8.20
2019,04,04,08,16,8.20
2019,04,04,08,17,8.20
2019,04,04,08,18,8.20
2019,04,04,08,19,8.20
2019,04,04,08,20,8.20
2019,04,04,08,21,8.20
2019,04,04,08,22,8.20
2019,04,04,08,23,8.20
2019,04,04,08,24,8.20
2019,04,04,08,25,8.20
2019,04,04,08,26,8.20
2019,04,04,08,27,8.20
2019,04,04,08,28,8.20
2019,04,04,08,29,8.20
2019,04,04,08,30,8.30
2019,04,04,08,31,8.30
2019,04,04,08,32,8.30
2019,04,04,08,33,8.30
2019,04,04,08,34,8.30
2019,04,04,08,35,8.30
2019,04,04,08,36,8.40
2019,04,04,08,37,8.40
2019,04,04,08,38,8.40
2019,04,04,08,39,8.40
2019,04,04,08,40,8.40
2019,04,04,08,41,8.50
2019,04,04,08,42,8.50
2019,04,04,08,43,8.50
2019,04,04,08,44,8.50
2019,04,04,08,45,8.50
2019,04,04,08,46,8.60
2019,04,04,08,47,8.60
2019,04,04,08,48,8.60
2019,04,04,08,49,8.60
2019,04,04,08,50,8.60
2019,04,04,08,51,8.70
2019,04,04,08,52,8.70
2019,04,04,08,53,8.70
2019,04,04,08,54,8.70
2019,04,04,08,55,8.70
2019,04,04,08,56,8.70
2019,04,04,08,57,8.80
2019,04,04,08,58,8.80
2019,04,04,08,59,8.80
2019,04,04,09,00,8.80
2019,04,04,09,01,8.80
2019,04,04,09,02,8.80
2019,04,04,09,03,8.80
2019,04,04,09,04,8.80
2019,04,04,09,05,8.90
2019,04,04,09,06,8.90
2019,04,04,09,07,8.90
2019,04,04,09,08,8.90
2019,04,04,09,09,9.00
2019,04,04,09,10,9.00
2019,04,04,09,11,9.00
2019,04,04,09,12,9.00
2019,04,04,09,13,9.10
2019,04,04,09,14,9.10
2019,04,04,09,15,9.10
2019,04,04,09,16,9.20
2019,04,04,09,17,9.20
2019,04,04,09,18,9.20
2019,04,04,09,19,9.20
2019,04,04,09,20,9.20
2019,04,04,09,21,9.20
2019,04,04,09,22,9.30
2019,04,04,09,23,9.30
2019,04,04,09,24,9.30
2019,04,04,09,25,9.40
2019,04,04,09,26,9.40
2019,04,04,09,27,9.40
2019,04,04,09,28,9.50
2019,04,04,09,29,9.50
2019,04,04,09,30,9.50
2019,04,04,09,31,9.60
2019,04,04,09,32,9.60
2019,04,04,09,33,9.70
2019,04,04,09,34,9.70
2019,04,04,09,35,9.70
2019,04,04,09,36,9.70
2019,04,04,09,37,9.70
2019,04,04,09,38,9.70
2019,04,04,09,39,9.70
2019,04,04,09,40,9.70
2019,04,04,09,41,9.80
2019,04,04,09,42,9.80
2019,04,04,09,43,9.80
2019,04,04,09,44,9.90
2019,04,04,09,45,9.90
2019,04,04,09,46,10.00
2019,04,04,09,47,10.00
2019,04,04,09,48,10.00
2019,04,04,09,49,10.10
2019,04,04,09,50,10.10
2019,04,04,09,51,10.20
2019,04,04,09,52,10.20
2019,04,04,09,53,10.30
2019,04,04,09,54,10.40
2019,04,04,09,55,10.40
2019,04,04,09,56,10.50
2019,04,04,09,57,10.50
2019,04,04,09,58,10.60
2019,04,04,09,59,10.60
2019,04,04,10,00,10.60
2019,04,04,10,01,10.60
2019,04,04,10,02,10.70
2019,04,04,10,03,10.70
2019,04,04,10,04,10.70
2019,04,04,10,05,10.70
2019,04,04,10,06,10.80
2019,04,04,10,07,10.80
2019,04,04,10,08,10.90
2019,04,04,10,09,10.90
2019,04,04,10,10,11.00
2019,04,04,10,11,11.00
2019,04,04,10,12,11.00
2019,04,04,10,13,10.90
2019,04,04,10,14,10.90
2019,04,04,10,15,10.80
2019,04,04,10,16,10.80
2019,04,04,10,17,10.80
2019,04,04,10,18,10.80
2019,04,04,10,19,10.80
2019,04,04,10,20,10.80
2019,04,04,10,21,10.90
2019,04,04,10,22,11.00
2019,04,04,10,23,11.00
2019,04,04,10,24,11.10
2019,04,04,10,25,11.00
2019,04,04,10,26,11.00
2019,04,04,10,27,11.10
2019,04,04,10,28,11.10
2019,04,04,10,29,11.10
2019,04,04,10,30,11.20
2019,04,04,10,31,11.20
2019,04,04,10,32,11.30
2019,04,04,10,33,11.40
2019,04,04,10,34,11.50
2019,04,04,10,35,11.60
2019,04,04,10,36,11.60
2019,04,04,10,37,11.80
2019,04,04,10,38,11.80
2019,04,04,10,39,11.90
2019,04,04,10,40,11.90
2019,04,04,10,41,11.90
2019,04,04,10,42,11.90
2019,04,04,10,43,11.80
2019,04,04,10,44,11.80
2019,04,04,10,45,11.80
2019,04,04,10,46,11.70
2019,04,04,10,47,11.70
2019,04,04,10,48,11.70
2019,04,04,10,49,11.70
2019,04,04,10,50,11.60
2019,04,04,10,51,11.60
2019,04,04,10,52,11.60
2019,04,04,10,53,11.60
2019,04,04,10,54,11.60
2019,04,04,10,55,11.60
2019,04,04,10,56,11.60
2019,04,04,10,57,11.60
2019,04,04,10,58,11.60
2019,04,04,10,59,11.60
2019,04,04,11,00,11.50
2019,04,04,11,01,11.50
2019,04,04,11,02,11.60
2019,04,04,11,03,11.60
2019,04,04,11,04,11.60
2019,04,04,11,05,11.60
2019,04,04,11,06,11.60
2019,04,04,11,07,11.60
2019,04,04,11,08,11.60
2019,04,04,11,09,11.60
2019,04,04,11,10,11.60
2019,04,04,11,11,11.60
2019,04,04,11,12,11.60
2019,04,04,11,13,11.60
2019,04,04,11,14,11.60
2019,04,04,11,15,11.60
2019,04,04,11,16,11.70
2019,04,04,11,17,11.70
2019,04,04,11,18,11.80
2019,04,04,11,19,11.90
2019,04,04,11,20,11.90
2019,04,04,11,21,11.90
2019,04,04,11,22,11.90
2019,04,04,11,23,12.00
2019,04,04,11,24,12.10
2019,04,04,11,25,12.10
2019,04,04,11,26,12.10
2019,04,04,11,27,12.10
2019,04,04,11,28,12.10
2019,04,04,11,29,12.10
2019,04,04,11,30,12.10
2019,04,04,11,31,12.20
2019,04,04,11,32,12.20
2019,04,04,11,33,12.30
2019,04,04,11,34,12.30
2019,04,04,11,35,12.30
2019,04,04,11,36,12.30
2019,04,04,11,37,12.30
2019,04,04,11,38,12.30
2019,04,04,11,39,12.30
2019,04,04,11,40,12.30
2019,04,04,11,41,12.30
2019,04,04,11,42,12.40
2019,04,04,11,43,12.40
2019,04,04,11,44,12.40
2019,04,04,11,45,12.40
2019,04,04,11,46,12.40
2019,04,04,11,47,12.50
2019,04,04,11,48,12.50
2019,04,04,11,49,12.50
2019,04,04,11,50,12.60
2019,04,04,11,51,12.70
2019,04,04,11,52,12.70
2019,04,04,11,53,12.70
2019,04,04,11,54,12.70
2019,04,04,11,55,12.70
2019,04,04,11,56,12.70
2019,04,04,11,57,12.70
2019,04,04,11,58,12.70
2019,04,04,11,59,12.70
2019,04,04,12,00,12.70
2019,04,04,12,01,12.70
2019,04,04,12,02,12.70
2019,04,04,12,03,12.80
2019,04,04,12,04,12.80
2019,04,04,12,05,12.80
2019,04,04,12,06,12.70
2019,04,04,12,07,12.60
2019,04,04,12,08,12.50
2019,04,04,12,09,12.40
2019,04,04,12,10,12.30
2019,04,04,12,11,12.30
2019,04,04,12,12,12.20
2019,04,04,12,13,12.20
2019,04,04,12,14,12.10
2019,04,04,12,15,12.10
2019,04,04,12,16,12.10
2019,04,04,12,17,12.00
2019,04,04,12,18,12.00
2019,04,04,12,19,11.90
2019,04,04,12,20,11.90
2019,04,04,12,21,11.90
2019,04,04,12,22,11.80
2019,04,04,12,23,11.80
2019,04,04,12,24,11.70
2019,04,04,12,25,11.70
2019,04,04,12,26,11.70
2019,04,04,12,27,11.70
2019,04,04,12,28,11.70
2019,04,04,12,29,11.70
2019,04,04,12,30,11.70
2019,04,04,12,31,11.60
2019,04,04,12,32,11.60
2019,04,04,12,33,11.60
2019,04,04,12,34,11.60
2019,04,04,12,35,11.60
2019,04,04,12,36,11.60
2019,04,04,12,37,11.70
2019,04,04,12,38,11.70
2019,04,04,12,39,11.80
2019,04,04,12,40,11.80
2019,04,04,12,41,11.80
2019,04,04,12,42,11.80
2019,04,04,12,43,11.80
2019,04,04,12,44,11.80
2019,04,04,12,45,11.80
2019,04,04,12,46,11.90
2019,04,04,12,47,11.90
2019,04,04,12,48,11.90
2019,04,04,12,49,12.00
2019,04,04,12,50,12.00
2019,04,04,12,51,12.00
2019,04,04,12,52,12.10
2019,04,04,12,53,12.00
2019,04,04,12,54,12.10
2019,04,04,12,55,12.10
2019,04,04,12,56,12.10
2019,04,04,12,57,12.10
2019,04,04,12,58,12.20
2019,04,04,12,59,12.20
2019,04,04,13,00,12.30
2019,04,04,13,01,12.30
2019,04,04,13,02,12.30
2019,04,04,13,03,12.30
2019,04,04,13,04,12.40
2019,04,04,13,05,12.30
2019,04,04,13,06,12.30
2019,04,04,13,07,12.30
2019,04,04,13,08,12.30
2019,04,04,13,09,12.30
2019,04,04,13,10,12.20
2019,04,04,13,11,12.20
2019,04,04,13,12,12.20
2019,04,04,13,13,12.20
2019,04,04,13,14,12.10
2019,04,04,13,15,12.20
2019,04,04,13,16,12.10
2019,04,04,13,17,12.10
2019,04,04,13,18,12.10
2019,04,04,13,19,12.10
2019,04,04,13,20,12.20
2019,04,04,13,21,12.20
2019,04,04,13,22,12.20
2019,04,04,13,23,12.20
2019,04,04,13,24,12.30
2019,04,04,13,25,12.30
2019,04,04,13,26,12.30
2019,04,04,13,27,12.40
2019,04,04,13,28,12.40
2019,04,04,13,29,12.40
2019,04,04,13,30,12.40
2019,04,04,13,31,12.50
2019,04,04,13,32,12.50
2019,04,04,13,33,12.60
2019,04,04,13,34,12.70
2019,04,04,13,35,12.70
2019,04,04,13,36,12.60
2019,04,04,13,37,12.60
2019,04,04,13,38,12.60
2019,04,04,13,39,12.50
2019,04,04,13,40,12.40
2019,04,04,13,41,12.40
2019,04,04,13,42,12.30
2019,04,04,13,43,12.20
2019,04,04,13,44,12.20
2019,04,04,13,45,12.20
2019,04,04,13,46,12.30
2019,04,04,13,47,12.30
2019,04,04,13,48,12.40
2019,04,04,13,49,12.40
2019,04,04,13,50,12.50
2019,04,04,13,51,12.50
2019,04,04,13,52,12.60
2019,04,04,13,53,12.60
2019,04,04,13,54,12.70
2019,04,04,13,55,12.70
2019,04,04,13,56,12.70
2019,04,04,13,57,12.70
2019,04,04,13,58,12.70
2019,04,04,13,59,12.70
2019,04,04,14,00,12.60
2019,04,04,14,01,12.70
2019,04,04,14,02,12.70
2019,04,04,14,03,12.70
2019,04,04,14,04,12.70
2019,04,04,14,05,12.70
2019,04,04,14,06,12.70
2019,04,04,14,07,12.80
2019,04,04,14,08,12.80
2019,04,04,14,09,12.80
2019,04,04,14,10,12.90
2019,04,04,14,11,12.90
2019,04,04,14,12,12.90
2019,04,04,14,13,13.00
2019,04,04,14,14,13.00
2019,04,04,14,15,13.00
2019,04,04,14,16,13.00
2019,04,04,14,17,13.00
2019,04,04,14,18,13.10
2019,04,04,14,19,13.10
2019,04,04,14,20,13.10
2019,04,04,14,21,13.20
2019,04,04,14,22,13.20
2019,04,04,14,23,13.20
2019,04,04,14,24,13.20
2019,04,04,14,25,13.30
2019,04,04,14,26,13.30
2019,04,04,14,27,13.30
2019,04,04,14,28,13.40
2019,04,04,14,29,13.40
2019,04,04,14,30,13.40
2019,04,04,14,31,13.40
2019,04,04,14,32,13.30
2019,04,04,14,33,13.20
2019,04,04,14,34,13.10
2019,04,04,14,35,13.00
2019,04,04,14,36,13.00
2019,04,04,14,37,13.00
2019,04,04,14,38,12.90
2019,04,04,14,39,12.90
2019,04,04,14,40,12.90
2019,04,04,14,41,12.90
2019,04,04,14,42,13.00
2019,04,04,14,43,13.00
2019,04,04,14,44,13.00
2019,04,04,14,45,13.00
2019,04,04,14,46,13.00
2019,04,04,14,47,13.00
2019,04,04,14,48,13.00
2019,04,04,14,49,13.00
2019,04,04,14,50,13.00
2019,04,04,14,51,13.10
2019,04,04,14,52,13.10
2019,04,04,14,53,13.10
2019,04,04,14,54,13.10
2019,04,04,14,55,13.10
2019,04,04,14,56,13.20
2019,04,04,14,57,13.20
2019,04,04,14,58,13.20
2019,04,04,14,59,13.20
2019,04,04,15,00,13.30
2019,04,04,15,01,13.30
2019,04,04,15,02,13.40
2019,04,04,15,03,13.40
2019,04,04,15,04,13.40
2019,04,04,15,05,13.40
2019,04,04,15,06,13.40
2019,04,04,15,07,13.40
2019,04,04,15,08,13.50
2019,04,04,15,09,13.50
2019,04,04,15,10,13.50
2019,04,04,15,11,13.60
2019,04,04,15,12,13.60
2019,04,04,15,13,13.60
2019,04,04,15,14,13.70
2019,04,04,15,15,13.70
2019,04,04,15,16,13.60
2019,04,04,15,17,13.60
2019,04,04,15,18,13.60
2019,04,04,15,19,13.60
2019,04,04,15,20,13.50
2019,04,04,15,21,13.50
2019,04,04,15,22,13.50
2019,04,04,15,23,13.50
2019,04,04,15,24,13.50
2019,04,04,15,25,13.60
2019,04,04,15,26,13.60
2019,04,04,15,27,13.70
2019,04,04,15,28,13.70
2019,04,04,15,29,13.70
2019,04,04,15,30,13.70
2019,04,04,15,31,13.80
2019,04,04,15,32,13.80
2019,04,04,15,33,13.80
2019,04,04,15,34,13.80
2019,04,04,15,35,13.90
2019,04,04,15,36,13.90
2019,04,04,15,37,13.90
2019,04,04,15,38,13.80
2019,04,04,15,39,13.80
2019,04,04,15,40,13.80
2019,04,04,15,41,13.80
2019,04,04,15,42,13.80
2019,04,04,15,43,13.80
2019,04,04,15,44,13.80
2019,04,04,15,45,13.80
2019,04,04,15,46,13.80
2019,04,04,15,47,13.80
2019,04,04,15,48,13.90
2019,04,04,15,49,13.90
2019,04,04,15,50,14.00
2019,04,04,15,51,14.10
2019,04,04,15,52,14.10
2019,04,04,15,53,14.20
2019,04,04,15,54,14.20
2019,04,04,15,55,14.20
2019,04,04,15,56,14.20
2019,04,04,15,57,14.20
2019,04,04,15,58,14.30
2019,04,04,15,59,14.30
2019,04,04,16,00,14.30
2019,04,04,16,01,14.30
2019,04,04,16,02,14.30
2019,04,04,16,03,14.30
2019,04,04,16,04,14.30
2019,04,04,16,05,14.20
2019,04,04,16,06,14.20
2019,04,04,16,07,14.10
2019,04,04,16,08,14.00
2019,04,04,16,09,13.90
2019,04,04,16,10,13.90
2019,04,04,16,11,13.80
2019,04,04,16,12,13.80
2019,04,04,16,13,13.80
2019,04,04,16,14,13.80
2019,04,04,16,15,13.80
2019,04,04,16,16,13.80
2019,04,04,16,17,13.80
2019,04,04,16,18,13.80
2019,04,04,16,19,13.80
2019,04,04,16,20,13.90
2019,04,04,16,21,13.80
2019,04,04,16,22,13.80
2019,04,04,16,23,13.80
2019,04,04,16,24,13.80
2019,04,04,16,25,13.80
2019,04,04,16,26,13.90
2019,04,04,16,27,13.90
2019,04,04,16,28,13.90
2019,04,04,16,29,14.00
2019,04,04,16,30,14.00
2019,04,04,16,31,14.10
2019,04,04,16,32,14.10
2019,04,04,16,33,14.10
2019,04,04,16,34,14.20
2019,04,04,16,35,14.20
2019,04,04,16,36,14.30
2019,04,04,16,37,14.30
2019,04,04,16,38,14.30
2019,04,04,16,39,14.30
2019,04,04,16,40,14.30
2019,04,04,16,41,14.20
2019,04,04,16,42,14.10
2019,04,04,16,43,13.90
2019,04,04,16,44,13.70
2019,04,04,16,45,13.50
2019,04,04,16,46,13.30
2019,04,04,16,47,13.20
2019,04,04,16,48,13.10
2019,04,04,16,49,13.10
2019,04,04,16,50,13.10
2019,04,04,16,51,13.10
2019,04,04,16,52,13.10
2019,04,04,16,53,13.10
2019,04,04,16,54,13.10
2019,04,04,16,55,13.00
2019,04,04,16,56,12.90
2019,04,04,16,57,12.90
2019,04,04,16,58,12.80
2019,04,04,16,59,12.80
2019,04,04,17,00,12.70
2019,04,04,17,01,12.70
2019,04,04,17,02,12.60
2019,04,04,17,03,12.60
2019,04,04,17,04,12.50
2019,04,04,17,05,12.50
2019,04,04,17,06,12.50
2019,04,04,17,07,12.50
2019,04,04,17,08,12.50
2019,04,04,17,09,12.50
2019,04,04,17,10,12.40
2019,04,04,17,11,12.40
2019,04,04,17,12,12.40
2019,04,04,17,13,12.40
2019,04,04,17,14,12.40
2019,04,04,17,15,12.40
2019,04,04,17,16,12.40
2019,04,04,17,17,12.40
2019,04,04,17,18,12.40
2019,04,04,17,19,12.40
2019,04,04,17,20,12.30
2019,04,04,17,21,12.30
2019,04,04,17,22,12.30
2019,04,04,17,23,12.30
2019,04,04,17,24,12.30
2019,04,04,17,25,12.30
2019,04,04,17,26,12.30
2019,04,04,17,27,12.30
2019,04,04,17,28,12.30
2019,04,04,17,29,12.30
2019,04,04,17,30,12.30
2019,04,04,17,31,12.30
2019,04,04,17,32,12.30
2019,04,04,17,33,12.20
2019,04,04,17,34,12.20
2019,04,04,17,35,12.20
2019,04,04,17,36,12.20
2019,04,04,17,37,12.20
2019,04,04,17,38,12.20
2019,04,04,17,39,12.20
2019,04,04,17,40,12.20
2019,04,04,17,41,12.10
2019,04,04,17,42,12.10
2019,04,04,17,43,12.10
2019,04,04,17,44,12.10